Miscellaneous Local Product
Issued by NWS Hastings, NE

Current Version | Previous Version | Text Only | Print | Product List | Glossary On
Versions: 1 2 3 4 5 6 7 8 9 10 11 12 13 14 15 16 17 18 19 20 21 22 23 24 25 26 27 28 29 30 31 32 33 34 35 36 37 38 39 40 41 42 43 44 45 46 47 48 49 50
000
AXUS43 KGID 171902
MISGRI

GID CWA HOURLY WEATHER ROUNDUP
NATIONAL WEATHER SERVICE HASTINGS NE
200 PM CDT TUE OCT 17 2017

NOTE: "FAIR" INDICATES FEW OR NO CLOUDS BELOW 12,000 FEET WITH NO
SIGNIFICANT WEATHER AND/OR OBSTRUCTIONS TO VISIBILITY.

...SOUTH CENTRAL NEBRASKA...

CITY           SKY/WX    TMP DP  RH WIND       PRES   REMARKS
GRAND ISLAND   SUNNY     77  37  23 CALM      30.05F
HASTINGS       SUNNY     75  36  24 S3        30.06F
KEARNEY        SUNNY     76  37  24 VRB3      30.07F
ORD            SUNNY     76  37  24 S9        30.04F
YORK           SUNNY     72  41  33 SW3       30.05F
AURORA         SUNNY     75  44  32 CALM      30.05F
LEXINGTON      SUNNY     76  35  22 S5        30.07F
HOLDREGE       SUNNY     76  36  23 CALM      30.07F
HEBRON         SUNNY     72  42  33 SW3       30.06F

...NEBRASKA PANHANDLE...

CITY           SKY/WX    TMP DP  RH WIND       PRES   REMARKS
CHADRON        SUNNY     74  16  11 VRB7      30.01F
ALLIANCE       SUNNY     72  16  12 W16G23    30.06F
SCOTTSBLUFF    SUNNY     76  16  10 W13       30.07F
SIDNEY         SUNNY     78  21  12 SW14G25   30.11F

...WESTERN AND NORTH CENTRAL NEBRASKA...

CITY           SKY/WX    TMP DP  RH WIND       PRES   REMARKS
VALENTINE      SUNNY     79  28  15 SW9       30.00F
AINSWORTH      SUNNY     74  36  24 SW8       30.03F
ONEILL         SUNNY     76  42  29 SW7       30.03F
BROKEN BOW     SUNNY     74  38  27 S9        30.06F
IMPERIAL       SUNNY     77  21  12 VRB6      30.10F
NORTH PLATTE   SUNNY     78  32  18 SW6       30.07F
MCCOOK         SUNNY     76  34  21 S8        30.08F

...EASTERN NEBRASKA...

CITY           SKY/WX    TMP DP  RH WIND       PRES   REMARKS
NORFOLK        SUNNY     75  36  24 SE6       30.01F
SO SIOUX CITY  SUNNY     71  47  42 SE7       30.02F
TEKAMAH        SUNNY     70  41  34 S9        30.04F
COLUMBUS       SUNNY     72  45  37 S5        30.05F
ALBION         SUNNY     77  36  22 CALM      30.04F
OMAHA EPPLEY   SUNNY     68  44  42 S9        30.06F
OFFUTT AFB     SUNNY     70  44  40 S9        30.05F
MILLARD        SUNNY     70  46  43 S6        30.06F
LINCOLN        SUNNY     70  44  39 S6        30.06F
NEBRASKA CITY  SUNNY     70  47  43 S14       30.07F
BEATRICE       SUNNY     69  47  45 S10       30.07F
FALLS CITY     SUNNY     70  44  39 S8G18     30.08F

...NORTHERN KANSAS...

CITY           SKY/WX    TMP DP  RH WIND       PRES   REMARKS
GOODLAND       SUNNY     77  23  13 VRB6      30.12F
HILL CITY        N/A    N/A N/A N/A MISG      30.08F
NORTON         CLEAR     77  21  12 S3        30.08F
PHILLIPSBURG   SUNNY     79  32  18 SE5       30.07F
SMITH CENTER   SUNNY     73  43  33 SW3       30.08F
HAYS           SUNNY     78  38  23 VRB3      30.08F
RUSSELL        SUNNY     75  43  31 SW8       30.06F
CONCORDIA      SUNNY     69  45  41 S9        30.07F
SALINA         SUNNY     74  48  39 S12       30.08F
TOPEKA         SUNNY     73  45  36 S14       30.10F



USA.gov is the U.S. government's official web portal to all federal, state and local government web resources and services.